Retour au catalogue

EUTE 12 WEST A

AB 1

ActifCommunicationsGEO
NORAD 27508·PAYLOAD·🇪🇺 EU

Lancé Aug 28, 2002 depuis Guiana Space Centre

Loading…

TLE

FraisSource: Space-Track

Époque: Sep 14, 2026, 21:10 UTC

1 27508U 02040A   26257.88230723 -.00000097  00000-0  00000-0 0  9990
2 27508   7.5046  67.4795 0005373  38.6421 316.8826  0.98292977 87525

Suivez EUTE 12 WEST A en temps réel avec AllMySat

Download on the App Store